{"data":{"norad_id":65930,"epoch":"2026-09-20T20:14:56.735808Z","epoch_age_seconds":73400,"freshness":"FRESH","line1":"1 65930U 25225W   26263.84371222  .00014718  00000+0  44592-3 0  9994","line2":"2 65930  53.1606 335.9094 0002491  37.1824 322.9351 15.34396112 54335","mean_motion":15.34396112,"eccentricity":0.0002491,"inclination_deg":53.1606,"raan_deg":335.9094,"arg_perigee_deg":37.1824,"mean_anomaly_deg":322.9351,"bstar":0.00044592,"rev_number":5433,"period_min":93.847995881783,"perigee_km":461.01074000444,"apogee_km":464.4188523693,"semimajor_km":6840.8517961869,"source":"CELESTRAK","updated_at":"2026-09-21T09:00:35.766313Z"}}